When you browse on this site, cookies collect data to enhance your experience and personalize the content and advertising you see.
Visit our Privacy Policy to learn more. By continuing to use the site, you agree to this use of cookies and data.
  • En España
  • Lista de países
  • Para 7 días
  • Temperatura del agua
  • Mapa Satelital
  • El tiempo en el mapa
  • Informadores
  • user-avatar
    Iniciar sesión

    Tiempo cada hora Bagdad

    Hoy, 18 Enero, Viernes

    Tiempo Temperatura Precipitaciones Viento Presión Humedad
    00:00 +9°C° 0 mm 5 mps 759 mmHg 23%
    01:00 +9°C° 0 mm 5 mps 760 mmHg 25%
    02:00 +8°C° 0 mm 5 mps 760 mmHg 27%
    03:00 +8°C° 0 mm 5 mps 761 mmHg 29%
    04:00 +7°C° 0 mm 4 mps 761 mmHg 31%
    05:00 +7°C° 0 mm 4 mps 761 mmHg 33%
    06:00 +7°C° 0 mm 4 mps 762 mmHg 35%
    07:00 +7°C° 0 mm 4 mps 762 mmHg 34%
    08:00 +7°C° 0 mm 4 mps 762 mmHg 33%
    09:00 +8°C° 0 mm 4 mps 762 mmHg 31%
    10:00 +8°C° 0 mm 5 mps 762 mmHg 28%
    11:00 +9°C° 0 mm 5 mps 762 mmHg 25%
    12:00 +10°C° 0 mm 5 mps 762 mmHg 22%
    13:00 +12°C° 0 mm 5 mps 762 mmHg 21%
    14:00 +12°C° 0 mm 5 mps 762 mmHg 20%
    15:00 +12°C° 0 mm 5 mps 762 mmHg 19%
    16:00 +12°C° 0 mm 4 mps 762 mmHg 21%
    17:00 +11°C° 0 mm 4 mps 762 mmHg 23%
    18:00 +10°C° 0 mm 3 mps 762 mmHg 25%
    19:00 +10°C° 0 mm 3 mps 763 mmHg 27%
    20:00 +9°C° 0 mm 2 mps 763 mmHg 29%
    21:00 +9°C° 0 mm 2 mps 763 mmHg 31%
    22:00 +9°C° 0 mm 2 mps 763 mmHg 32%
    23:00 +8°C° 0 mm 2 mps 763 mmHg 33%

    Mañana, 19 Enero, Sábado

    Tiempo Temperatura Precipitaciones Viento Presión Humedad
    00:00 +8°C° 0 mm 2 mps 763 mmHg 33%
    01:00 +8°C° 0 mm 2 mps 763 mmHg 34%
    02:00 +7°C° 0 mm 2 mps 763 mmHg 34%
    03:00 +7°C° 0 mm 2 mps 763 mmHg 34%
    04:00 +7°C° 0 mm 2 mps 763 mmHg 35%
    05:00 +6°C° 0 mm 2 mps 763 mmHg 36%
    06:00 +6°C° 0 mm 2 mps 763 mmHg 37%
    07:00 +7°C° 0 mm 2 mps 764 mmHg 36%
    08:00 +8°C° 0 mm 2 mps 764 mmHg 35%
    09:00 +8°C° 0 mm 2 mps 764 mmHg 34%
    10:00 +9°C° 0 mm 3 mps 764 mmHg 31%
    11:00 +11°C° 0 mm 3 mps 764 mmHg 28%
    12:00 +12°C° 0 mm 3 mps 764 mmHg 25%
    13:00 +12°C° 0 mm 3 mps 764 mmHg 25%
    14:00 +13°C° 0 mm 3 mps 764 mmHg 24%
    15:00 +13°C° 0 mm 3 mps 763 mmHg 23%
    16:00 +13°C° 0 mm 3 mps 763 mmHg 25%
    17:00 +12°C° 0 mm 3 mps 763 mmHg 27%
    18:00 +12°C° 0 mm 3 mps 763 mmHg 29%
    19:00 +11°C° 0 mm 3 mps 764 mmHg 31%
    20:00 +11°C° 0 mm 3 mps 764 mmHg 33%
    21:00 +10°C° 0 mm 3 mps 764 mmHg 34%
    22:00 +10°C° 0 mm 3 mps 764 mmHg 36%
    23:00 +9°C° 0 mm 2 mps 764 mmHg 37%

    Pasado mañana, 20 Enero, Domingo

    Tiempo Temperatura Precipitaciones Viento Presión Humedad
    00:00 +9°C° 0 mm 2 mps 764 mmHg 38%
    01:00 +9°C° 0 mm 2 mps 764 mmHg 40%
    02:00 +8°C° 0 mm 2 mps 764 mmHg 42%
    03:00 +8°C° 0 mm 2 mps 764 mmHg 43%
    04:00 +8°C° 0 mm 2 mps 764 mmHg 45%
    05:00 +7°C° 0 mm 2 mps 764 mmHg 46%
    06:00 +7°C° 0 mm 2 mps 764 mmHg 48%
    07:00 +8°C° 0 mm 2 mps 765 mmHg 45%
    08:00 +9°C° 0 mm 2 mps 765 mmHg 43%
    09:00 +9°C° 0 mm 2 mps 766 mmHg 41%
    10:00 +10°C° 0 mm 2 mps 765 mmHg 37%
    11:00 +13°C° 0 mm 2 mps 765 mmHg 34%
    12:00 +14°C° 0 mm 2 mps 765 mmHg 30%
    13:00 +14°C° 0 mm 2 mps 765 mmHg 28%
    14:00 +14°C° 0 mm 3 mps 764 mmHg 27%
    15:00 +14°C° 0 mm 3 mps 764 mmHg 25%
    16:00 +14°C° 0 mm 3 mps 764 mmHg 27%
    17:00 +14°C° 0 mm 2 mps 764 mmHg 28%
    18:00 +13°C° 0 mm 2 mps 764 mmHg 30%
    19:00 +13°C° 0 mm 2 mps 764 mmHg 31%
    20:00 +13°C° 0 mm 2 mps 764 mmHg 32%
    21:00 +12°C° 0 mm 2 mps 764 mmHg 33%
    22:00 +12°C° 0 mm 2 mps 764 mmHg 35%
    23:00 +10°C° 0 mm 2 mps 764 mmHg 36%

    21 Enero, Lunes

    Tiempo Temperatura Precipitaciones Viento Presión Humedad
    00:00 +10°C° 0 mm 2 mps 764 mmHg 37%
    01:00 +9°C° 0 mm 2 mps 764 mmHg 38%
    02:00 +9°C° 0 mm 2 mps 764 mmHg 39%
    03:00 +9°C° 0 mm 2 mps 764 mmHg 39%
    04:00 +10°C° 0 mm 1 mps 763 mmHg 39%
    05:00 +10°C° 0 mm 1 mps 763 mmHg 39%
    06:00 +9°C° 0 mm 1 mps 763 mmHg 38%
    07:00 +10°C° 0 mm 1 mps 763 mmHg 36%
    08:00 +11°C° 0 mm 1 mps 764 mmHg 34%
    09:00 +11°C° 0 mm 1 mps 764 mmHg 32%
    10:00 +12°C° 0 mm 1 mps 763 mmHg 30%
    11:00 +13°C° 0 mm 1 mps 763 mmHg 28%
    12:00 +14°C° 0 mm 2 mps 763 mmHg 26%
    13:00 +15°C° 0 mm 2 mps 762 mmHg 25%
    14:00 +15°C° 0 mm 2 mps 762 mmHg 24%
    15:00 +16°C° 0 mm 2 mps 761 mmHg 22%
    16:00 +15°C° 0 mm 2 mps 761 mmHg 24%
    17:00 +15°C° 0 mm 2 mps 761 mmHg 25%
    18:00 +14°C° 0 mm 1 mps 761 mmHg 26%
    19:00 +14°C° 0 mm 1 mps 761 mmHg 27%
    20:00 +14°C° 0 mm 1 mps 761 mmHg 27%
    21:00 +13°C° 0 mm 1 mps 762 mmHg 28%
    22:00 +13°C° 0 mm 1 mps 761 mmHg 30%
    23:00 +13°C° 0 mm 2 mps 761 mmHg 32%

    22 Enero, Martes

    Tiempo Temperatura Precipitaciones Viento Presión Humedad
    00:00 +12°C° 0 mm 2 mps 761 mmHg 34%
    01:00 +12°C° 0 mm 2 mps 761 mmHg 36%
    02:00 +12°C° 0 mm 2 mps 761 mmHg 37%
    03:00 +12°C° 0 mm 2 mps 761 mmHg 39%
    04:00 +10°C° 0 mm 2 mps 761 mmHg 41%
    05:00 +10°C° 0 mm 2 mps 761 mmHg 42%
    06:00 +9°C° 0 mm 2 mps 761 mmHg 43%
    07:00 +11°C° 0 mm 1 mps 761 mmHg 40%
    08:00 +12°C° 0 mm 1 mps 761 mmHg 38%
    09:00 +12°C° 0 mm 1 mps 761 mmHg 35%
    10:00 +13°C° 0 mm 1 mps 761 mmHg 33%
    11:00 +15°C° 0 mm 1 mps 761 mmHg 30%
    12:00 +16°C° 0 mm 2 mps 761 mmHg 27%
    13:00 +16°C° 0 mm 2 mps 760 mmHg 27%
    14:00 +17°C° 0 mm 2 mps 760 mmHg 27%
    15:00 +17°C° 0 mm 2 mps 759 mmHg 26%
    16:00 +17°C° 0 mm 2 mps 759 mmHg 28%
    17:00 +16°C° 0 mm 2 mps 759 mmHg 29%
    18:00 +15°C° 0 mm 2 mps 759 mmHg 31%
    19:00 +15°C° 0 mm 2 mps 760 mmHg 33%
    20:00 +14°C° 0 mm 2 mps 760 mmHg 34%
    21:00 +14°C° 0 mm 2 mps 760 mmHg 36%
    22:00 +13°C° 0 mm 2 mps 760 mmHg 37%
    23:00 +13°C° 0 mm 2 mps 760 mmHg 38%

    23 Enero, Miércoles

    Tiempo Temperatura Precipitaciones Viento Presión Humedad
    00:00 +12°C° 0 mm 1 mps 760 mmHg 39%
    01:00 +12°C° 0 mm 2 mps 760 mmHg 41%
    02:00 +12°C° 0 mm 2 mps 759 mmHg 42%
    03:00 +10°C° 0 mm 2 mps 759 mmHg 43%
    04:00 +11°C° 0 mm 1 mps 760 mmHg 44%
    05:00 +11°C° 0 mm 1 mps 760 mmHg 46%
    06:00 +10°C° 0 mm 1 mps 760 mmHg 47%
    07:00 +11°C° 0 mm 1 mps 760 mmHg 44%
    08:00 +11°C° 0 mm 0 mps 761 mmHg 41%
    09:00 +12°C° 0 mm 0 mps 761 mmHg 38%
    10:00 +13°C° 0 mm 0 mps 761 mmHg 35%
    11:00 +14°C° 0 mm 0 mps 761 mmHg 33%
    12:00 +16°C° 0 mm 1 mps 761 mmHg 30%
    13:00 +18°C° 0 mm 1 mps 760 mmHg 29%
    14:00 +18°C° 0 mm 1 mps 760 mmHg 28%
    15:00 +17°C° 0 mm 0 mps 760 mmHg 27%
    16:00 +16°C° 0 mm 0 mps 760 mmHg 28%
    17:00 +16°C° 0 mm 1 mps 760 mmHg 30%
    18:00 +16°C° 0 mm 1 mps 760 mmHg 32%
    19:00 +15°C° 0 mm 1 mps 760 mmHg 33%
    20:00 +15°C° 0 mm 1 mps 760 mmHg 34%
    21:00 +15°C° 0 mm 1 mps 760 mmHg 35%
    22:00 +14°C° 0 mm 2 mps 760 mmHg 36%
    23:00 +14°C° 0 mm 2 mps 760 mmHg 37%
    Mostrar más